WAT561 KLAS-KPHX

Flight info

Callsign WAT561
Flight time 0h 49m
Altitude 29000
Route RASLR3 ZAYNE WOTRO BRUSR1
Aircraft A400/H-SDE2E3FGHIJ4J5M1RWXY/LB1D1

Departure

Time 2026-05-06 20:40
Airport Harry Reid International Airport (KLAS)

Arrival

Time 2026-05-06 21:29
Airport Phoenix Sky Harbor International Airport (KPHX)
Time Latitude Longitude Altitude Speed Heading
2026-05-06 20:15 36.08041 -115.12724 2077 ft 0 kts 270°
2026-05-06 20:27 36.08041 -115.12709 2067 ft 3 kts 270°
2026-05-06 20:28 36.08041 -115.12683 2067 ft 3 kts 270°
2026-05-06 20:28 36.08041 -115.12658 2066 ft 3 kts 253°
2026-05-06 20:28 36.08051 -115.12636 2066 ft 3 kts 203°
2026-05-06 20:28 36.08064 -115.12631 2066 ft 0 kts 184°
2026-05-06 20:35 36.08042 -115.12632 2066 ft 9 kts 181°
2026-05-06 20:35 36.07939 -115.12632 2063 ft 20 kts 180°
2026-05-06 20:35 36.07822 -115.12609 2058 ft 9 kts 137°
2026-05-06 20:36 36.07817 -115.12560 2060 ft 9 kts 77°
2026-05-06 20:36 36.07828 -115.12435 2060 ft 20 kts 88°
2026-05-06 20:36 36.07809 -115.12242 2054 ft 23 kts 118°
2026-05-06 20:36 36.07757 -115.12157 2049 ft 0 kts 131°
2026-05-06 20:37 36.07747 -115.12144 2051 ft 5 kts 134°
2026-05-06 20:37 36.07686 -115.12117 2052 ft 14 kts 177°
2026-05-06 20:38 36.07639 -115.12208 2058 ft 9 kts 270°
2026-05-06 20:38 36.07639 -115.12211 2058 ft 0 kts 270°
2026-05-06 20:39 36.07639 -115.12380 2057 ft 72 kts 270°
2026-05-06 20:39 36.07629 -115.13504 2136 ft 173 kts 272°
2026-05-06 20:39 36.07628 -115.15144 2740 ft 204 kts 272°
2026-05-06 20:40 36.07634 -115.16916 3798 ft 215 kts 272°
2026-05-06 20:40 36.07634 -115.18883 4562 ft 241 kts 271°
2026-05-06 20:40 36.07561 -115.21006 5606 ft 253 kts 265°
2026-05-06 20:40 36.07278 -115.23193 6659 ft 262 kts 258°
2026-05-06 20:41 36.06539 -115.25279 7426 ft 269 kts 235°
2026-05-06 20:41 36.05122 -115.26739 7875 ft 272 kts 210°
2026-05-06 20:41 36.03377 -115.27661 8009 ft 273 kts 201°
2026-05-06 20:41 36.01574 -115.28400 8017 ft 274 kts 194°
2026-05-06 20:42 35.99682 -115.28577 8016 ft 274 kts 173°
2026-05-06 20:42 35.97903 -115.27813 8066 ft 275 kts 147°
2026-05-06 20:42 35.96350 -115.26324 8598 ft 293 kts 137°
2026-05-06 20:42 35.94809 -115.24626 9753 ft 296 kts 136°
2026-05-06 20:43 35.93279 -115.22921 10990 ft 296 kts 135°
2026-05-06 20:43 35.91799 -115.21172 12236 ft 294 kts 128°
2026-05-06 20:43 35.90546 -115.19101 13013 ft 311 kts 119°
2026-05-06 20:43 35.89379 -115.16739 13462 ft 333 kts 116°
2026-05-06 20:44 35.88188 -115.14237 14070 ft 344 kts 116°
2026-05-06 20:44 35.86993 -115.11653 14684 ft 349 kts 113°
2026-05-06 20:44 35.86096 -115.08870 15357 ft 350 kts 104°
2026-05-06 20:44 35.85375 -115.05990 16005 ft 354 kts 103°
2026-05-06 20:45 35.84687 -115.03100 16703 ft 358 kts 102°
2026-05-06 20:45 35.83984 -115.00143 17386 ft 362 kts 102°
2026-05-06 20:45 35.83264 -114.97131 18045 ft 368 kts 103°
2026-05-06 20:45 35.82532 -114.94084 18694 ft 372 kts 102°
2026-05-06 20:46 35.81793 -114.91014 19353 ft 375 kts 102°
2026-05-06 20:46 35.81047 -114.87925 20013 ft 378 kts 102°
2026-05-06 20:46 35.80288 -114.84797 20651 ft 382 kts 102°
2026-05-06 20:46 35.79524 -114.81653 21300 ft 385 kts 102°
2026-05-06 20:47 35.78753 -114.78485 21924 ft 388 kts 102°
2026-05-06 20:47 35.77972 -114.75282 22512 ft 392 kts 102°
2026-05-06 20:47 35.77185 -114.72060 23098 ft 395 kts 102°
2026-05-06 20:47 35.76388 -114.68803 23645 ft 398 kts 102°
2026-05-06 20:48 35.75589 -114.65541 24113 ft 400 kts 102°
2026-05-06 20:48 35.74780 -114.62244 24503 ft 403 kts 102°
2026-05-06 20:48 35.73980 -114.58983 24913 ft 405 kts 102°
2026-05-06 20:48 35.73161 -114.55655 25345 ft 406 kts 102°
2026-05-06 20:49 35.72339 -114.52322 25747 ft 408 kts 102°
2026-05-06 20:49 35.71513 -114.48970 26074 ft 410 kts 102°
2026-05-06 20:49 35.70581 -114.45643 26442 ft 415 kts 107°
2026-05-06 20:49 35.69250 -114.42458 26790 ft 423 kts 117°
2026-05-06 20:50 35.67430 -114.39579 27157 ft 431 kts 128°
2026-05-06 20:50 35.65238 -114.37038 27538 ft 434 kts 133°
2026-05-06 20:50 35.62942 -114.34612 27972 ft 434 kts 134°
2026-05-06 20:50 35.60649 -114.32220 28478 ft 431 kts 134°
2026-05-06 20:51 35.58372 -114.29839 28923 ft 428 kts 134°
2026-05-06 20:51 35.56099 -114.27456 29195 ft 430 kts 134°
2026-05-06 20:51 35.53821 -114.25062 29057 ft 431 kts 134°
2026-05-06 20:52 35.49314 -114.20323 28978 ft 428 kts 134°
2026-05-06 20:52 35.44788 -114.15567 29020 ft 429 kts 134°
2026-05-06 20:53 35.40259 -114.10819 29049 ft 427 kts 134°
2026-05-06 20:53 35.35745 -114.06090 29092 ft 427 kts 134°
2026-05-06 20:54 35.31662 -114.00933 29101 ft 417 kts 119°
2026-05-06 20:54 35.29284 -113.94630 29111 ft 404 kts 101°
2026-05-06 20:55 35.27894 -113.88017 29109 ft 403 kts 99°
2026-05-06 20:55 35.26537 -113.81370 29097 ft 402 kts 99°
2026-05-06 20:56 35.25161 -113.74731 29085 ft 403 kts 99°
2026-05-06 20:56 35.23777 -113.68091 29040 ft 403 kts 99°
2026-05-06 20:57 35.22454 -113.61430 29004 ft 402 kts 98°
2026-05-06 20:57 35.21196 -113.54760 28983 ft 402 kts 98°
2026-05-06 20:58 35.19933 -113.48089 28963 ft 402 kts 98°
2026-05-06 20:58 35.18667 -113.41430 28971 ft 403 kts 98°
2026-05-06 20:59 35.17361 -113.34754 28968 ft 406 kts 101°
2026-05-06 20:59 35.14940 -113.28492 28970 ft 416 kts 117°
2026-05-06 21:00 35.11729 -113.22595 28973 ft 417 kts 118°
2026-05-06 21:00 35.08495 -113.16721 28973 ft 416 kts 118°
2026-05-06 21:01 35.05252 -113.10841 28972 ft 416 kts 118°
2026-05-06 21:01 35.02011 -113.04984 28971 ft 417 kts 118°
2026-05-06 21:02 34.98757 -112.99109 28974 ft 417 kts 118°
2026-05-06 21:02 34.95508 -112.93253 28971 ft 416 kts 118°
2026-05-06 21:03 34.92291 -112.87462 28966 ft 415 kts 118°
2026-05-06 21:03 34.89048 -112.81631 28965 ft 415 kts 118°
2026-05-06 21:04 34.85799 -112.75802 28975 ft 417 kts 118°
2026-05-06 21:04 34.82529 -112.69945 28970 ft 418 kts 118°
2026-05-06 21:05 34.79265 -112.64108 28968 ft 417 kts 119°
2026-05-06 21:05 34.76005 -112.58288 28970 ft 416 kts 119°
2026-05-06 21:06 34.72747 -112.52478 28968 ft 416 kts 119°
2026-05-06 21:06 34.71084 -112.49597 29126 ft 418 kts 122°
2026-05-06 21:06 34.69107 -112.46987 29128 ft 424 kts 132°
2026-05-06 21:07 34.64571 -112.42421 29091 ft 423 kts 136°
2026-05-06 21:07 34.62303 -112.40225 28460 ft 413 kts 137°
2026-05-06 21:07 34.60061 -112.38048 27379 ft 415 kts 137°
2026-05-06 21:07 34.57797 -112.35842 26280 ft 418 kts 137°
2026-05-06 21:08 34.55527 -112.33630 25483 ft 420 kts 137°
2026-05-06 21:08 34.53250 -112.31411 24788 ft 419 kts 137°
2026-05-06 21:08 34.50996 -112.29218 24390 ft 406 kts 137°
2026-05-06 21:08 34.48852 -112.27137 24295 ft 389 kts 137°
2026-05-06 21:09 34.46724 -112.25069 23756 ft 393 kts 138°
2026-05-06 21:09 34.44414 -112.23288 23000 ft 396 kts 152°
2026-05-06 21:09 34.41791 -112.22258 22430 ft 397 kts 163°
2026-05-06 21:09 34.39115 -112.21529 21879 ft 392 kts 165°
2026-05-06 21:10 34.36453 -112.20857 21326 ft 388 kts 165°
2026-05-06 21:10 34.33825 -112.20193 20758 ft 384 kts 166°
2026-05-06 21:10 34.31222 -112.19531 20210 ft 381 kts 166°
2026-05-06 21:10 34.28641 -112.18870 19663 ft 377 kts 166°
2026-05-06 21:11 34.26085 -112.18213 19119 ft 374 kts 166°
2026-05-06 21:11 34.23552 -112.17561 18581 ft 371 kts 166°
2026-05-06 21:11 34.21038 -112.16913 18009 ft 368 kts 166°
2026-05-06 21:11 34.18547 -112.16271 17425 ft 365 kts 166°
2026-05-06 21:12 34.16095 -112.15640 17032 ft 358 kts 166°
2026-05-06 21:12 34.13733 -112.15033 16949 ft 338 kts 166°
2026-05-06 21:12 34.11443 -112.14443 16627 ft 335 kts 166°
2026-05-06 21:12 34.09175 -112.13841 16102 ft 333 kts 163°
2026-05-06 21:13 34.06972 -112.13050 15652 ft 330 kts 160°
2026-05-06 21:13 34.04792 -112.12172 15234 ft 330 kts 159°
2026-05-06 21:13 34.02623 -112.11282 14793 ft 328 kts 159°
2026-05-06 21:13 34.00470 -112.10401 14354 ft 326 kts 159°
2026-05-06 21:14 33.98325 -112.09525 13915 ft 325 kts 160°
2026-05-06 21:14 33.96189 -112.08655 13441 ft 323 kts 160°
2026-05-06 21:14 33.94057 -112.07789 12990 ft 322 kts 160°
2026-05-06 21:14 33.91937 -112.06928 12556 ft 320 kts 160°
2026-05-06 21:15 33.89829 -112.06071 12124 ft 319 kts 160°
2026-05-06 21:15 33.88439 -112.05507 11841 ft 319 kts 160°
2026-05-06 21:15 33.86340 -112.04654 11394 ft 317 kts 160°
2026-05-06 21:15 33.84253 -112.03808 10959 ft 316 kts 160°
2026-05-06 21:16 33.81491 -112.02688 10382 ft 316 kts 160°
2026-05-06 21:16 33.79413 -112.01847 9939 ft 315 kts 160°
2026-05-06 21:16 33.78016 -112.01280 9617 ft 313 kts 160°
2026-05-06 21:16 33.75960 -112.00448 9165 ft 310 kts 160°
2026-05-06 21:17 33.73924 -111.99625 8945 ft 307 kts 160°
2026-05-06 21:17 33.71910 -111.98809 8703 ft 303 kts 160°
2026-05-06 21:17 33.69927 -111.98008 8503 ft 299 kts 161°
2026-05-06 21:17 33.67963 -111.97215 8335 ft 298 kts 161°
2026-05-06 21:18 33.66034 -111.96437 8182 ft 285 kts 161°
2026-05-06 21:18 33.64198 -111.95696 8026 ft 273 kts 161°
2026-05-06 21:18 33.62401 -111.94966 7794 ft 272 kts 161°
2026-05-06 21:18 33.60628 -111.94248 7614 ft 273 kts 161°
2026-05-06 21:19 33.58841 -111.93526 7444 ft 270 kts 162°
2026-05-06 21:19 33.57067 -111.92810 7276 ft 266 kts 162°
2026-05-06 21:19 33.55347 -111.92114 7131 ft 257 kts 161°
2026-05-06 21:19 33.53805 -111.91126 7035 ft 249 kts 139°
2026-05-06 21:20 33.52893 -111.89413 7005 ft 244 kts 105°
2026-05-06 21:20 33.52499 -111.87466 6860 ft 238 kts 103°
2026-05-06 21:20 33.52301 -111.85491 6388 ft 243 kts 91°
2026-05-06 21:20 33.52310 -111.83409 5632 ft 256 kts 89°
2026-05-06 21:21 33.52354 -111.81231 4961 ft 265 kts 89°
2026-05-06 21:21 33.52411 -111.79015 4360 ft 266 kts 89°
2026-05-06 21:21 33.52470 -111.76835 4071 ft 255 kts 88°
2026-05-06 21:21 33.52518 -111.74791 3989 ft 243 kts 89°
2026-05-06 21:22 33.52549 -111.72786 3993 ft 238 kts 91°
2026-05-06 21:22 33.52145 -111.70901 4000 ft 232 kts 122°
2026-05-06 21:22 33.51058 -111.69666 4013 ft 208 kts 157°
2026-05-06 21:22 33.49702 -111.69443 3999 ft 193 kts 195°
2026-05-06 21:23 33.48565 -111.70172 4012 ft 185 kts 223°
2026-05-06 21:23 33.47642 -111.71257 3996 ft 185 kts 229°
2026-05-06 21:23 33.46760 -111.72401 4006 ft 187 kts 229°
2026-05-06 21:23 33.45883 -111.73556 4003 ft 187 kts 230°
2026-05-06 21:24 33.45007 -111.74716 4016 ft 187 kts 231°
2026-05-06 21:24 33.44080 -111.75814 4015 ft 187 kts 224°
2026-05-06 21:24 33.43383 -111.77081 4012 ft 183 kts 257°
2026-05-06 21:24 33.43140 -111.78587 4011 ft 184 kts 260°
2026-05-06 21:25 33.42941 -111.80077 4001 ft 181 kts 261°
2026-05-06 21:25 33.42820 -111.81566 3714 ft 183 kts 268°
2026-05-06 21:25 33.42817 -111.83109 3365 ft 187 kts 271°
2026-05-06 21:25 33.42836 -111.84648 3101 ft 183 kts 271°
2026-05-06 21:26 33.42852 -111.86173 3007 ft 182 kts 271°
2026-05-06 21:26 33.42861 -111.87707 2986 ft 182 kts 270°
2026-05-06 21:26 33.42867 -111.89189 2767 ft 174 kts 270°
2026-05-06 21:26 33.42865 -111.90532 2695 ft 146 kts 272°
2026-05-06 21:27 33.42867 -111.91680 2471 ft 131 kts 270°
2026-05-06 21:27 33.42873 -111.92758 2245 ft 129 kts 271°
2026-05-06 21:27 33.42863 -111.93827 2147 ft 130 kts 269°
2026-05-06 21:27 33.42877 -111.94916 2008 ft 128 kts 272°
2026-05-06 21:28 33.42873 -111.95977 1836 ft 129 kts 269°
2026-05-06 21:28 33.42878 -111.97051 1700 ft 132 kts 271°
2026-05-06 21:28 33.42882 -111.98140 1494 ft 130 kts 269°
2026-05-06 21:28 33.42871 -111.99216 1330 ft 130 kts 271°
2026-05-06 21:29 33.42878 -112.00281 1185 ft 127 kts 272°
2026-05-06 21:29 33.42889 -112.01247 1143 ft 86 kts 269°
2026-05-06 21:29 33.42885 -112.01645 1141 ft 27 kts 270°
2026-05-06 21:29 33.42884 -112.01845 1138 ft 23 kts 267°
2026-05-06 21:30 33.42877 -112.02044 1134 ft 23 kts 261°
2026-05-06 21:30 33.42794 -112.02152 1136 ft 15 kts 150°
2026-05-06 21:30 33.42770 -112.02029 1136 ft 16 kts 95°
2026-05-06 21:30 33.42772 -112.01889 1138 ft 18 kts 89°
2026-05-06 21:31 33.42774 -112.01735 1138 ft 19 kts 89°
2026-05-06 21:31 33.42774 -112.01586 1135 ft 15 kts 90°
2026-05-06 21:31 33.42735 -112.01497 1139 ft 13 kts 167°
2026-05-06 21:31 33.42690 -112.01574 1137 ft 13 kts 266°
2026-05-06 21:32 33.42692 -112.01684 1136 ft 14 kts 271°
2026-05-06 21:32 33.42622 -112.01716 1138 ft 5 kts 101°
2026-05-06 21:32 33.42620 -112.01656 1134 ft 8 kts 90°
2026-05-06 21:33 33.42620 -112.01641 1134 ft 0 kts 90°